sat.trackr.live / text

‹ back to catalog

STARLINK-36972

NORAD 68072 · 2026-042D

PAYLOAD ACTIVE UNKNOWN

§ Identity

Operator
Country
US
Launch date
2026-03-04
Launch site
AFETR
Launch vehicle
Mass (kg)
RCS (m²)

Purposes: comms

External: N2YO · Heavens-Above · Gunter

§ Orbital elements

Epoch: 2026-05-24T19:49:36.596928Z

Period
93.85 min
Inclination
53.1588°
Eccentricity
0.0001227
Mean motion
15.34397819 rev/d
Perigee alt
461.9 km
Apogee alt
463.5 km
Semi-major
6,840.8 km
B*
4.3749e-4
RAAN
184.2419°
Arg perigee
89.1175°
Mean anomaly
270.9969°
Rev number
1,397

§ Raw data

STARLINK-369721 68072U 26042D   26144.82611802  .00014433  00000+0  43749-3 0  99962 68072  53.1588 184.2419 0001227  89.1175 270.9969 15.34397819 13979

JSON: /api/v1/satellites/68072 · /tle

For live sub-satellite position, see the globe view (requires WebGL).

§ Visibility from observer

Set your observer location to see the next 7 days of passes ≥ 10°. The values pass through the URL so the page stays shareable.

No JS? Fill the form by hand. The geolocation button needs JavaScript.